Location: Caltech
(34.1382°N, 118.1253°W)
Time: 04:49:52
(UTC-08:00)

UOSAT-12 - Visible Passes

Search period start: 16 January 2017 00:00
Search period end: 26 January 2017 00:00
Orbit: 613 x 641 km, 64.6° (Epoch: 15 January)

Date Brightness Start Highest point End Pass type
(mag) Time Alt. Az. Time Alt. Az. Time Alt. Az.
16 Jan 7.9 17:27:20 10° N 17:31:28 32° NE 17:35:36 10° ESE visible
16 Jan 9.5 19:07:45 10° WNW 19:11:22 23° WSW 19:14:59 10° SSW visible
17 Jan 7.1 17:46:47 10° NNW 17:51:25 74° ENE 17:56:00 10° SE visible
18 Jan 8.4 18:06:47 10° NW 18:11:11 45° WSW 18:15:34 10° S visible
19 Jan 10.1 18:27:31 10° WNW 18:30:47 19° WSW 18:34:02 10° SSW visible
22 Jan 10.7 05:56:10 10° SE 05:58:07 13° ESE 06:00:05 10° E visible
22 Jan 10.6 17:47:24 10° WNW 17:50:10 16° WSW 17:52:57 10° SW visible
23 Jan 9.3 06:13:43 10° S 06:17:38 31° ESE 06:21:37 10° NE visible
25 Jan 10.2 05:14:52 10° SE 05:17:31 16° ESE 05:20:10 10° ENE visible
